Left ArrowRight Arrow

32.19382, -80.73816

Hourly Observations for January 12, 2020

Temp ( °F °C ) Dew Point ( °F °C ) Humidity (%) Winds ( mph kmh ) Pressure ( in mb ) Visibility ( mi km ) Precip ( " mm )
12:15 am 00:15 Cloudy with Mist and Fog 66 19 66 19 100 100 S 13 20 30.23 1024 4 6 N/A
12:35 am 00:35 Cloudy with Mist and Fog 66 19 66 19 100 100 S 13 20 30.22 1023 4 6 N/A
12:55 am 00:55 Cloudy with Mist and Fog 66 19 66 19 100 100 VRB 10 17 30.21 1023 3 5 N/A
1:15 am 01:15 Cloudy with Mist and Fog 66 19 66 19 100 100 S 14 22 30.20 1023 3 5 N/A
1:35 am 01:35 Cloudy with Mist and Fog 66 19 64 18 94 94 S 12 19 30.19 1022 2 3 N/A
1:55 am 01:55 Cloudy with Mist and Fog 64 18 64 18 100 100 S 10 17 30.20 1023 1 2 N/A
2:15 am 02:15 Cloudy with Mist and Fog 64 18 64 18 100 100 S 13 20 30.21 1023 1 2 N/A
2:35 am 02:35 Cloudy with Mist and Fog 66 19 66 19 100 100 S 13 20 30.22 1023 1 2 N/A
2:55 am 02:55 Cloudy with Mist and Fog 66 19 66 19 100 100 S 13 20 30.23 1024 1 1 N/A
3:15 am 03:15 Cloudy with Mist and Fog 66 19 66 19 100 100 S 12 19 30.23 1024 2 3 N/A
3:35 am 03:35 Cloudy with Mist and Fog 66 19 66 19 100 100 S 14 22 30.21 1023 2 3 N/A
3:55 am 03:55 Cloudy with Mist and Fog 66 19 64 18 94 94 S 13 20 30.21 1023 1 2 N/A
4:15 am 04:15 Cloudy with Mist and Fog 66 19 66 19 100 100 S 12 19 30.22 1023 2 2 N/A
4:35 am 04:35 Cloudy with Mist and Fog 66 19 66 19 100 100 SSW 14 22 30.23 1024 4 6 N/A
4:55 am 04:55 Cloudy with Mist and Fog 66 19 66 19 100 100 SSW 13 20 30.23 1024 5 8 N/A
5:15 am 05:15 Cloudy with Mist and Fog 66 19 66 19 100 100 SSW 12 19 30.25 1024 6 10 N/A
5:35 am 05:35 Cloudy 66 19 66 19 100 100 S 12 19 30.26 1025 7 11 N/A
6:50 am 06:50 Cloudy with Mist and Fog 66 19 66 19 100 100 SSW 9 15 30.29 1026 6 10 N/A
7:50 am 07:50 Cloudy with Drizzle 66 19 66 19 100 100 SSW 9 15 30.32 1027 6 10 N/A
8:50 am 08:50 Cloudy with Light Rain 68 20 66 19 94 94 S 7 11 30.32 1027 5 8 N/A
9:50 am 09:50 Cloudy with Mist and Fog 66 19 66 19 100 100 S 12 19 30.32 1027 4 6 N/A
10:15 am 10:15 Cloudy with Mist and Fog 68 20 68 20 100 100 S 9 15 30.32 1027 0 0 N/A
10:50 am 10:50 Cloudy with Fog 68 20 68 20 100 100 S 12 19 30.32 1027 0 0 N/A
11:50 am 11:50 Cloudy 68 20 68 20 100 100 SSW 15 24 30.32 1027 3 4 N/A
12:10 pm 12:10 Cloudy 70 21 70 21 100 100 SSW 15 24 30.32 1027 5 8 N/A
12:50 pm 12:50 Mostly Cloudy 72 22 68 20 88 88 SSW 15 24 30.29 1026 7 11 N/A
1:50 pm 13:50 Mostly Cloudy 72 22 70 21 94 94 SSW 15 24 30.27 1025 9 14 N/A
2:50 pm 14:50 Mostly Cloudy 72 22 68 20 88 88 S 13 20 30.25 1024 10 16 N/A
3:50 pm 15:50 Cloudy 68 20 66 19 94 94 S 7 11 30.26 1025 10 16 N/A
4:50 pm 16:50 Cloudy with Fog 66 19 66 19 100 100 S 7 11 30.28 1025 2 2 N/A
5:50 pm 17:50 Cloudy with Fog 66 19 66 19 100 100 S 8 13 30.30 1026 0 0 N/A
6:50 pm 18:50 Cloudy with Fog 64 18 64 18 100 100 S 6 9 30.32 1027 0 0 N/A
7:50 pm 19:50 Cloudy with Fog 66 19 66 19 100 100 SSW 9 15 30.33 1027 0 0 N/A
8:50 pm 20:50 Cloudy with Fog 68 20 68 20 100 100 SSW 8 13 30.33 1027 1 1 N/A
8:55 pm 20:55 Cloudy with Mist and Fog 68 20 68 20 100 100 SSW 8 13 30.33 1027 1 1 N/A
9:15 pm 21:15 Cloudy with Mist and Fog 68 20 68 20 100 100 VRB 7 11 30.33 1027 1 2 N/A
9:35 pm 21:35 Cloudy with Mist and Fog 68 20 68 20 100 100 SSW 10 17 30.33 1027 2 3 N/A
9:55 pm 21:55 Cloudy with Mist and Fog 68 20 68 20 100 100 SSW 10 17 30.34 1027 5 8 N/A
10:15 pm 22:15 Cloudy with Mist and Fog 68 20 68 20 100 100 S 10 17 30.34 1027 5 8 N/A
10:35 pm 22:35 Cloudy with Mist and Fog 68 20 68 20 100 100 S 8 13 30.34 1027 5 8 N/A
10:55 pm 22:55 Cloudy with Mist and Fog 68 20 68 20 100 100 S 9 15 30.34 1027 4 6 N/A
11:15 pm 23:15 Cloudy 68 20 68 20 100 100 S 8 13 30.34 1027 7 11 N/A
11:35 pm 23:35 Cloudy with Mist and Fog 68 20 68 20 100 100 SSW 9 15 30.34 1027 4 6 N/A
11:55 pm 23:55 Cloudy with Mist and Fog 68 20 68 20 100 100 S 8 13 30.34 1027 2 3 N/A

Powered by Vaisala Xweather